This demonstration page uses our WeatherBlox Daily Observations layout. Learn more.

39.29038, -76.61219

Hourly Observations for July 3, 2019

Temp ( °F °C ) Dew Point ( °F °C ) Humidity (%) Winds ( mph kmh ) Pressure ( in mb ) Visibility ( mi km ) Precip ( " mm )
12:54 am 00:54 undefined 75 23.9 70 21.1 84 84 undefined N/A 29.83 1010 N/A 0 0
1:54 am 01:54 undefined 75 23.9 70 21.1 84 84 undefined N/A 29.83 1010 N/A 0 0
2:54 am 02:54 undefined 76 24.4 70 21.1 82 82 undefined N/A 29.83 1010 N/A 0 0
3:54 am 03:54 undefined 76 24.4 69 20.6 79 79 undefined N/A 29.83 1010 N/A 0 0
4:54 am 04:54 undefined 75 23.9 70 21.1 84 84 undefined N/A 29.83 1010 N/A 0 0
5:54 am 05:54 undefined 75 23.9 69 20.6 82 82 undefined N/A 29.85 1011 N/A 0 0
6:54 am 06:54 undefined 77 25 68 20 74 74 undefined N/A 29.85 1011 N/A 0 0
7:54 am 07:54 undefined 81 27.2 69 20.6 67 67 undefined N/A 29.85 1011 N/A 0 0
8:54 am 08:54 undefined 81 27.2 68 20 65 65 undefined N/A 29.88 1012 N/A 0 0
9:54 am 09:54 undefined 81 27.2 67 19.4 62 62 undefined N/A 29.88 1012 N/A 0 0
10:54 am 10:54 undefined 86 30 67 19.4 53 53 undefined N/A 29.88 1012 N/A 0 0
11:54 am 11:54 undefined 87 30.6 68 20 53 53 undefined N/A 29.88 1012 N/A 0 0
12:54 pm 12:54 undefined 89 31.7 68 20 50 50 undefined N/A 29.88 1012 N/A 0 0
1:54 pm 13:54 undefined 92 33.3 69 20.6 47 47 undefined N/A 29.88 1012 N/A 0 0
2:54 pm 14:54 undefined 92 33.3 68 20 46 46 undefined N/A 29.85 1011 N/A 0 0
3:54 pm 15:54 undefined 91 32.8 68 20 47 47 undefined N/A 29.85 1011 N/A 0 0
4:54 pm 16:54 undefined 92 33.3 68 20 46 46 undefined N/A 29.85 1011 N/A 0 0
5:54 pm 17:54 undefined 88 31.1 71 21.7 57 57 undefined N/A 29.85 1011 N/A 0 0
6:54 pm 18:54 undefined 85 29.4 73 22.8 68 68 undefined N/A 29.85 1011 N/A 0.05 1.27
7:54 pm 19:54 undefined 81 27.2 72 22.2 74 74 undefined N/A 29.88 1012 N/A 0.2 5.08
8:54 pm 20:54 undefined 82 27.8 74 23.3 77 77 undefined N/A 29.88 1012 N/A 0 0
9:54 pm 21:54 undefined 83 28.3 74 23.3 74 74 undefined N/A 29.91 1013 N/A 0 0
10:54 pm 22:54 undefined 83 28.3 72 22.2 70 70 undefined N/A 29.91 1013 N/A 0 0
11:54 pm 23:54 undefined 82 27.8 73 22.8 74 74 undefined N/A 29.94 1014 N/A 0 0

Powered by AerisWeather